Home > Weather > New Salem > Past weeks

Flag for USA Past Weather in New Salem, North Dakota, USA — Yesterday and Last 2 Weeks

Now
62 °F

Partly sunny.


Feels Like: 62 °F
Forecast: 52 / 81 °F
Wind: 5 mph from East

Location: Bismarck Municipal Airport

Current Time: Jun 28, 2016 at 10:17:22 AM

Latest Report: Jun 28, 2016 at 8:52 AM


Visibility: 10 mi

Pressure: 30.27 "Hg (27.99 "Hg at 664m altitude)

Humidity: 78%

Dew Point: 55 °F

Location of New SalemLocation

Past Weather in New Salem — Graph

°F

New Salem Temperature Yesterday

Maximum temperature yesterday: 77 °F (at 4:52 PM)
Minimum temperature yesterday: 57 °F (at 3:52 AM)
Average temperature yesterday: 66 °F

High & Low Weather Summary for the Past Weeks

 TemperatureHumidityPressure
High92 °F (Jun 24, 5:52 PM)100% (Jun 14, 8:57 AM)30.30 "Hg (Jun 14, 8:57 AM)
Low48 °F (Jun 23, 5:52 AM)18% (Jun 19, 6:52 PM)29.50 "Hg (Jun 25, 12:52 AM)
Average70 °F62%29.95 "Hg
* Reported Jun 13 8:52 AM — Jun 28 8:52 AM, New Salem, Weather by CustomWeather, © 2016

Note: Actual official high and low records may vary slightly from our data, if they occured in-between our weather recording intervals... More about our weather records

Advertising

New Salem Weather History for the Previous 24 Hours

Scroll right to see more
 ConditionsComfort  
Time TempWeatherWind HumidityBarometerVisibility
8:52 AM
Tue, Jun 28
62 °FPartly sunny.5 mph78%30.27 "Hg10 mi
7:52 AM56 °FSunny.6 mph87%30.27 "Hg10 mi
6:52 AM51 °FSunny.7 mph92%30.27 "Hg10 mi
5:52 AM49 °FClear.No wind93%30.28 "Hg10 mi
4:52 AM49 °FClear.No wind97%30.27 "Hg10 mi
3:52 AM52 °FClear.5 mph89%30.27 "Hg10 mi
2:52 AM53 °FClear.3 mph89%30.28 "Hg10 mi
1:52 AM55 °FClear.5 mph87%30.28 "Hg10 mi
12:52 AM56 °FClear.No wind84%30.29 "Hg10 mi
11:52 PM
Mon, Jun 27
58 °FClear.3 mph81%30.29 "Hg10 mi
10:52 PM59 °FClear.No wind78%30.29 "Hg10 mi
9:52 PM65 °FSunny.8 mph63%30.26 "Hg10 mi
8:52 PM70 °FSunny.9 mph53%30.25 "Hg10 mi
7:52 PM73 °FSunny.7 mph48%30.24 "Hg10 mi
6:52 PM74 °FSunny.10 mph46%30.24 "Hg10 mi
5:52 PM73 °FPassing clouds.12 mph48%30.25 "Hg10 mi
4:52 PM77 °FScattered clouds.12 mph44%30.25 "Hg10 mi
3:52 PM76 °FPassing clouds.12 mph47%30.26 "Hg10 mi
2:52 PM74 °FPassing clouds.15 mph53%30.27 "Hg10 mi
1:52 PM73 °FPartly sunny.10 mph55%30.27 "Hg10 mi
12:52 PM72 °FPassing clouds.14 mph57%30.28 "Hg10 mi
11:52 AM69 °FPartly sunny.7 mph66%30.29 "Hg10 mi
10:52 AM66 °FOvercast.7 mph73%30.29 "Hg10 mi
Weather by CustomWeather, © 2016

See weather overviewHow to use our weather pages